Hourly Weather Kozivka

Today, 29 October, Thursday

Time Temperature Precipitation Wind Pressure Humidity
00:00 +9°C° 0 mm 2 mps 735 mmHg 93%
01:00 +9°C° 0 mm 2 mps 735 mmHg 93%
02:00 +8°C° 0 mm 2 mps 735 mmHg 94%
03:00 +8°C° 0 mm 2 mps 735 mmHg 94%
04:00 +8°C° 0 mm 2 mps 734 mmHg 95%
05:00 +8°C° 0 mm 2 mps 734 mmHg 95%
06:00 +8°C° 0 mm 2 mps 734 mmHg 95%
07:00 +8°C° 0 mm 2 mps 734 mmHg 96%
08:00 +8°C° 0 mm 2 mps 734 mmHg 96%
09:00 +9°C° 0 mm 2 mps 734 mmHg 90%
10:00 +10°C° 0 mm 2 mps 734 mmHg 84%
11:00 +13°C° 0 mm 2 mps 734 mmHg 78%
12:00 +13°C° 0 mm 2 mps 734 mmHg 78%
13:00 +14°C° 0 mm 2 mps 734 mmHg 77%
14:00 +13°C° 0 mm 3 mps 734 mmHg 76%
15:00 +13°C° 0.1 mm 2 mps 734 mmHg 80%
16:00 +13°C° 0.1 mm 2 mps 734 mmHg 84%
17:00 +12°C° 0.1 mm 2 mps 734 mmHg 88%
18:00 +12°C° 0 mm 1 mps 734 mmHg 90%
19:00 +11°C° 0 mm 1 mps 734 mmHg 91%
20:00 +11°C° 0 mm 1 mps 734 mmHg 93%
21:00 +11°C° 0 mm 1 mps 734 mmHg 93%
22:00 +10°C° 0 mm 1 mps 734 mmHg 93%
23:00 +9°C° 0 mm 2 mps 734 mmHg 93%

Tomorrow, 30 October, Friday

Time Temperature Precipitation Wind Pressure Humidity
00:00 +9°C° 0 mm 2 mps 734 mmHg 93%
01:00 +9°C° 0 mm 2 mps 734 mmHg 93%
02:00 +9°C° 0 mm 2 mps 734 mmHg 93%
03:00 +9°C° 0.2 mm 3 mps 734 mmHg 93%
04:00 +9°C° 0.2 mm 3 mps 734 mmHg 94%
05:00 +9°C° 0.2 mm 3 mps 734 mmHg 94%
06:00 +8°C° 0.5 mm 4 mps 735 mmHg 91%
07:00 +8°C° 0.5 mm 4 mps 736 mmHg 89%
08:00 +8°C° 0.5 mm 5 mps 736 mmHg 86%
09:00 +8°C° 0 mm 5 mps 736 mmHg 83%
10:00 +8°C° 0 mm 5 mps 737 mmHg 79%
11:00 +9°C° 0 mm 5 mps 737 mmHg 76%
12:00 +9°C° 0 mm 5 mps 737 mmHg 73%
13:00 +10°C° 0 mm 4 mps 737 mmHg 69%
14:00 +11°C° 0 mm 4 mps 737 mmHg 66%
15:00 +10°C° 0 mm 4 mps 737 mmHg 69%
16:00 +9°C° 0 mm 3 mps 736 mmHg 72%
17:00 +8°C° 0 mm 2 mps 736 mmHg 76%
18:00 +8°C° 0 mm 2 mps 736 mmHg 77%
19:00 +9°C° 0 mm 1 mps 736 mmHg 79%
20:00 +8°C° 0 mm 1 mps 736 mmHg 80%
21:00 +8°C° 0 mm 1 mps 736 mmHg 80%
22:00 +7°C° 0 mm 2 mps 736 mmHg 80%
23:00 +7°C° 0 mm 2 mps 736 mmHg 80%

Day after tomorrow, 31 October, Saturday

Time Temperature Precipitation Wind Pressure Humidity
00:00 +7°C° 0.7 mm 2 mps 735 mmHg 83%
01:00 +7°C° 0.7 mm 2 mps 734 mmHg 86%
02:00 +7°C° 0.7 mm 2 mps 734 mmHg 90%
03:00 +7°C° 1.2 mm 3 mps 734 mmHg 90%
04:00 +7°C° 1.2 mm 3 mps 734 mmHg 91%
05:00 +5°C° 1.2 mm 3 mps 734 mmHg 91%
06:00 +7°C° 0.2 mm 2 mps 734 mmHg 90%
07:00 +7°C° 0.2 mm 2 mps 735 mmHg 90%
08:00 +7°C° 0.2 mm 2 mps 735 mmHg 89%
09:00 +7°C° 0.6 mm 2 mps 736 mmHg 87%
10:00 +7°C° 0.6 mm 3 mps 736 mmHg 85%
11:00 +8°C° 0.6 mm 3 mps 737 mmHg 83%
12:00 +8°C° 0.4 mm 3 mps 737 mmHg 80%
13:00 +8°C° 0.4 mm 3 mps 737 mmHg 78%
14:00 +9°C° 0.4 mm 3 mps 737 mmHg 76%
15:00 +8°C° 0.2 mm 3 mps 737 mmHg 78%
16:00 +8°C° 0.2 mm 3 mps 737 mmHg 80%
17:00 +7°C° 0.2 mm 3 mps 737 mmHg 82%
18:00 +7°C° 0 mm 3 mps 738 mmHg 85%
19:00 +5°C° 0 mm 3 mps 738 mmHg 87%
20:00 +4°C° 0 mm 3 mps 738 mmHg 90%
21:00 +4°C° 0 mm 3 mps 738 mmHg 91%
22:00 +4°C° 0 mm 3 mps 738 mmHg 91%
23:00 +4°C° 0 mm 3 mps 738 mmHg 92%

1 November, Sunday

Time Temperature Precipitation Wind Pressure Humidity
00:00 +4°C° 0.1 mm 4 mps 738 mmHg 92%
01:00 +4°C° 0.1 mm 4 mps 739 mmHg 91%
02:00 +4°C° 0.1 mm 4 mps 739 mmHg 90%
03:00 +3°C° 0.1 mm 5 mps 739 mmHg 90%
04:00 +3°C° 0.1 mm 5 mps 738 mmHg 91%
05:00 +5°C° 0.1 mm 5 mps 738 mmHg 91%
06:00 +5°C° 0 mm 5 mps 738 mmHg 91%
07:00 +5°C° 0 mm 5 mps 739 mmHg 92%
08:00 +5°C° 0 mm 4 mps 739 mmHg 92%
09:00 +6°C° 0 mm 4 mps 739 mmHg 92%
10:00 +6°C° 0 mm 4 mps 739 mmHg 91%
11:00 +6°C° 0 mm 4 mps 739 mmHg 90%
12:00 +7°C° 0 mm 4 mps 739 mmHg 88%
13:00 +7°C° 0 mm 4 mps 739 mmHg 86%
14:00 +7°C° 0 mm 4 mps 739 mmHg 84%
15:00 +8°C° 0 mm 3 mps 739 mmHg 86%
16:00 +8°C° 0 mm 3 mps 739 mmHg 87%
17:00 +7°C° 0 mm 3 mps 739 mmHg 88%
18:00 +7°C° 0 mm 2 mps 739 mmHg 89%
19:00 +7°C° 0 mm 2 mps 739 mmHg 89%
20:00 +7°C° 0 mm 2 mps 739 mmHg 90%
21:00 +7°C° 0 mm 2 mps 739 mmHg 90%
22:00 +7°C° 0 mm 2 mps 739 mmHg 90%
23:00 +7°C° 0 mm 2 mps 739 mmHg 90%

2 November, Monday

Time Temperature Precipitation Wind Pressure Humidity
00:00 +7°C° 0 mm 2 mps 739 mmHg 90%
01:00 +7°C° 0 mm 2 mps 739 mmHg 91%
02:00 +7°C° 0 mm 2 mps 739 mmHg 91%
03:00 +8°C° 0 mm 1 mps 738 mmHg 92%
04:00 +7°C° 0 mm 1 mps 738 mmHg 93%
05:00 +7°C° 0 mm 1 mps 738 mmHg 94%
06:00 +7°C° 0 mm 1 mps 738 mmHg 94%
07:00 +6°C° 0 mm 1 mps 738 mmHg 94%
08:00 +6°C° 0 mm 1 mps 738 mmHg 95%
09:00 +7°C° 0 mm 1 mps 738 mmHg 90%
10:00 +8°C° 0 mm 1 mps 738 mmHg 85%
11:00 +9°C° 0 mm 1 mps 738 mmHg 80%
12:00 +10°C° 0 mm 1 mps 738 mmHg 79%
13:00 +10°C° 0 mm 1 mps 738 mmHg 77%
14:00 +10°C° 0 mm 1 mps 738 mmHg 76%
15:00 +10°C° 0 mm 1 mps 737 mmHg 77%
16:00 +9°C° 0 mm 1 mps 737 mmHg 78%
17:00 +9°C° 0 mm 1 mps 737 mmHg 79%
18:00 +9°C° 0 mm 1 mps 738 mmHg 80%
19:00 +7°C° 0 mm 2 mps 738 mmHg 81%
20:00 +7°C° 0 mm 2 mps 738 mmHg 82%
21:00 +7°C° 0 mm 1 mps 738 mmHg 83%
22:00 +7°C° 0 mm 1 mps 738 mmHg 85%
23:00 +7°C° 0 mm 1 mps 738 mmHg 86%

3 November, Tuesday

Time Temperature Precipitation Wind Pressure Humidity
00:00 +6°C° 0 mm 1 mps 738 mmHg 87%
01:00 +6°C° 0 mm 1 mps 738 mmHg 88%
02:00 +6°C° 0 mm 1 mps 738 mmHg 89%
03:00 +6°C° 0 mm 1 mps 738 mmHg 90%
04:00 +5°C° 0 mm 1 mps 737 mmHg 91%
05:00 +5°C° 0 mm 1 mps 737 mmHg 92%
06:00 +5°C° 0 mm 1 mps 737 mmHg 93%
07:00 +5°C° 0 mm 1 mps 738 mmHg 94%
08:00 +5°C° 0 mm 1 mps 738 mmHg 95%
09:00 +7°C° 0 mm 1 mps 738 mmHg 90%
10:00 +8°C° 0 mm 1 mps 738 mmHg 84%
11:00 +9°C° 0 mm 1 mps 738 mmHg 79%
12:00 +9°C° 0 mm 2 mps 738 mmHg 79%
13:00 +9°C° 0 mm 2 mps 738 mmHg 79%
14:00 +9°C° 0 mm 3 mps 738 mmHg 79%
15:00 +8°C° 0 mm 2 mps 738 mmHg 82%
16:00 +8°C° 0 mm 2 mps 739 mmHg 86%
17:00 +7°C° 0 mm 2 mps 739 mmHg 90%
18:00 +7°C° 0 mm 2 mps 739 mmHg 91%
19:00 +6°C° 0 mm 2 mps 739 mmHg 92%
20:00 +6°C° 0 mm 2 mps 740 mmHg 93%
21:00 +6°C° 0 mm 2 mps 740 mmHg 94%
22:00 +6°C° 0 mm 2 mps 740 mmHg 94%
23:00 +5°C° 0 mm 2 mps 741 mmHg 95%
Show more